Location: Knowlton
(51.2333°N, 1.2667°E)
Time: 03:05:50
(UTC+00:00)

USA 229 - Pass Details

Date: 18 April 2021
Orbit: 958 x 1254 km, 63.4° (Epoch: 23 April)

Event Time Altitude Azimuth Distance (km) Brightness Sun altitude
Rises 21:31:58 0° 311° (NW) 3,889 8.1 -20.4°
Reaches altitude 10° 21:34:39 10° 316° (NW) 2,974 7.2 -20.7°
Maximum altitude 21:41:37 54° 33° (NNE) 1,399 4.4 -21.3°
Enters shadow 21:46:15 24° 101° (E) 2,270 5.0 -21.7°
